Helicity
194 239 198 183 181 166 224 302 289 284 232 236 193 173 161 164 165 179 192 202 203 205 182 189 217 228 222 247 245 253 279 332 328 280 290 298 277 258 264 249 246 224 200 190
240 100 144 200 170 177 231 276 271 272 213 193 135 131 153 139 172 157 159 182 193 199 204 202 213 232 249 239 235 243 281 301 329 312 273 237 214 260 246 237 253 263 239 231
175 115 183 222 237 226 179 197 196 177 213 221 149 118 114 138 160 155 165 181 191 170 168 196 217 241 246 263 262 232 242 285 318 321 263 226 203 238 259 297 258 258 239 234
135 156 168 215 183 243 197 147 221 239 228 150 195 86 81 121 121 123 147 169 194 191 194 205 220 241 258 269 236 226 232 259 301 317 302 288 263 216 235 215 213 212 252 244
109 150 180 166 160 237 151 203 213 176 268 185 149 129 48 88 87 121 203 225 223 212 206 217 226 228 242 243 241 232 233 259 288 310 311 273 262 242 229 213 214 228 225 237
131 140 152 120 177 193 218 304 264 223 177 160 105 133 -40 85 107 174 255 265 268 240 230 236 238 237 250 246 243 236 245 276 290 278 284 279 271 257 229 240 216 199 179 166
163 148 129 133 233 215 270 245 268 242 237 174 114 119 88 50 97 101 327 314 260 241 238 240 242 240 252 262 256 243 252 279 276 272 274 266 245 232 231 213 197 183 167 159
179 176 163 151 164 249 265 266 322 268 248 196 166 125 124 129 200 131 197 321 276 275 267 258 246 246 250 258 262 257 260 273 274 257 255 233 217 189 177 175 152 146 136 141
144 164 159 218 210 187 201 168 162 214 174 173 152 184 135 173 158 207 246 294 291 283 269 259 259 262 255 261 270 268 258 251 247 226 205 202 184 174 157 147 126 113 116 113
231 213 211 264 239 227 160 223 228 220 192 171 126 145 100 73 175 248 304 345 310 289 274 271 274 275 273 266 256 237 223 215 207 196 178 160 149 136 123 112 119 114 108 116
181 146 180 260 290 264 308 239 239 193 225 180 104 65 134 64 203 254 310 318 317 291 279 280 276 266 255 236 224 214 204 193 186 169 147 132 122 111 102 94 93 93 96 104
216 162 205 164 210 271 352 294 160 232 280 282 196 135 188 97 188 286 264 242 264 272 273 270 256 244 237 228 209 200 181 163 143 126 111 99 86 77 78 79 76 75 85 84
222 191 234 223 199 197 219 263 366 308 264 215 233 205 312 168 154 163 253 269 297 290 272 251 234 226 216 206 192 171 155 143 121 105 92 78 74 71 71 75 70 68 73 75
229 171 185 162 163 224 266 242 210 262 277 282 262 282 262 229 211 144 159 281 259 220 207 198 198 201 192 182 168 149 129 109 92 82 78 74 76 73 64 61 75 88 95 104
135 206 202 197 163 244 203 218 235 213 228 275 251 235 210 217 234 311 355 337 316 249 221 228 265 237 190 167 143 117 94 81 72 78 78 76 73 79 90 93 104 104 103 100
176 140 190 214 215 206 217 235 237 281 306 263 218 215 189 336 405 386 392 389 401 368 304 238 197 169 144 117 96 77 78 81 70 82 88 92 94 94 89 82 83 90 86 84
57 125 165 167 202 220 205 251 292 333 335 269 251 234 321 392 406 477 545 385 238 162 138 141 144 137 114 99 82 76 80 84 88 93 87 80 75 75 79 81 85 86 92 91
92 129 169 150 150 169 175 246 358 326 338 343 323 221 257 362 416 321 206 157 148 142 132 130 123 118 107 85 69 76 79 78 83 86 77 80 81 79 78 80 78 80 85 82
153 192 151 148 202 162 161 192 224 286 267 320 303 366 401 365 364 298 215 210 194 161 135 124 115 102 88 67 65 69 75 69 87 88 80 80 81 86 90 89 87 89 95 92
210 192 188 154 129 83 104 192 248 258 211 225 230 251 262 243 318 178 153 183 177 152 122 103 83 77 76 58 58 70 68 74 89 78 75 72 74 75 80 82 87 91 96 87
181 229 196 162 130 129 139 167 222 272 189 153 162 163 184 200 185 202 165 172 128 109 85 72 72 69 60 58 65 71 71 84 81 77 81 84 87 89 94 97 102 108 109 110
130 169 220 218 207 129 162 152 203 137 159 140 178 201 275 260 270 222 163 124 94 87 71 62 66 70 70 65 67 76 87 105 105 110 104 103 109 115 117 111 116 119 132 142
130 159 150 185 135 94 127 143 97 92 127 149 192 186 168 151 143 125 112 100 79 73 73 72 82 92 100 95 81 82 108 106 109 108 106 112 117 114 120 123 126 154 152 176
149 151 139 134 168 180 142 137 209 207 200 165 154 115 98 107 94 102 89 89 95 89 87 77 79 78 88 86 74 86 91 107 109 110 114 119 125 126 123 139 153 163 162 170
92 122 128 142 181 249 326 287 251 240 189 157 148 123 95 90 99 82 82 84 74 61 50 48 50 59 71 78 79 94 88 107 116 127 131 137 143 140 145 147 151 152 150 139
97 98 140 140 133 238 227 159 173 161 122 91 101 118 107 77 63 45 42 33 36 36 39 43 41 46 53 64 71 95 106 108 115 119 118 117 118 130 132 135 145 97 81 82
Wind_Speed
35 37 36 31 36 37 36 37 41 40 39 40 44 43 40 40 40 36 39 37 37 37 36 35 36 38 38 37 37 37 35 35 33 31 30 28 27 28 30 32 36 37 39 40
35 35 34 28 28 32 32 34 42 39 41 45 46 50 48 47 50 45 41 39 39 38 37 36 35 36 36 35 34 33 33 32 31 30 29 27 26 27 29 32 35 38 40 41
43 49 28 29 33 30 36 35 38 45 42 45 45 64 62 56 53 47 46 40 39 38 38 36 35 34 33 32 32 31 31 29 29 28 26 24 24 27 30 34 35 39 41 42
55 43 24 29 28 26 37 39 33 36 44 63 56 81 71 67 63 58 50 45 39 36 34 34 34 32 31 30 30 29 29 28 28 27 24 23 24 26 31 33 35 38 42 43
46 35 29 30 28 26 40 24 29 37 45 51 58 67 65 56 72 64 51 45 39 36 33 32 31 30 29 28 28 28 27 27 27 27 26 25 26 28 31 33 35 38 42 44
43 40 32 38 36 27 14 21 29 38 47 73 63 65 76 68 67 54 46 43 38 34 32 30 29 27 27 27 27 26 26 27 28 27 27 27 28 30 32 36 37 40 42 44
39 39 38 29 31 21 25 22 47 58 65 78 54 65 84 52 54 44 35 35 32 30 30 29 28 28 27 26 27 26 26 26 28 28 28 29 29 31 33 35 38 39 42 45
38 51 37 33 32 28 31 34 41 58 68 66 47 78 70 53 51 34 22 26 26 25 26 27 26 26 26 25 26 26 26 27 28 28 29 30 31 32 34 37 38 41 43 46
36 46 37 38 38 27 37 37 34 46 49 61 67 70 67 52 42 30 23 23 24 24 24 23 23 24 25 25 26 27 27 27 29 29 30 32 33 35 37 39 41 43 46 48
46 43 40 41 39 43 36 32 39 48 60 71 66 73 71 53 46 35 30 29 27 24 23 23 24 24 25 25 26 26 27 28 30 31 33 34 36 38 39 41 44 47 49 51
45 45 43 44 48 49 45 40 46 45 56 68 82 78 57 59 35 30 28 27 26 24 23 23 23 24 24 24 26 27 28 30 32 34 35 36 39 41 43 45 48 50 52 55
45 51 56 47 45 51 55 54 43 51 52 67 73 81 47 44 22 23 24 25 22 21 21 21 22 24 25 26 28 30 30 32 34 36 38 40 41 43 46 49 51 53 57 58
47 56 61 60 60 53 58 53 53 55 58 64 72 79 53 29 19 19 18 20 19 19 20 21 22 24 25 26 28 30 32 34 36 38 41 43 46 49 52 55 57 58 60 62
48 56 69 80 60 53 60 56 56 52 67 71 76 67 46 32 24 23 23 21 20 17 17 18 21 24 26 28 30 32 35 36 39 42 45 48 52 54 56 58 60 61 63 64
56 72 69 68 60 57 57 57 58 56 60 63 68 67 49 33 29 22 19 18 17 18 18 19 20 22 24 27 30 33 37 40 43 48 52 55 56 57 58 59 62 64 65 67
55 67 66 74 67 66 66 63 57 65 66 66 62 61 46 26 22 23 23 21 21 20 17 15 15 19 23 27 32 36 41 45 49 53 56 57 59 61 62 62 64 67 69 70
55 59 62 76 65 65 84 71 62 62 60 60 66 60 33 30 30 27 24 23 21 19 15 16 21 27 31 35 39 44 47 50 53 56 59 61 61 64 66 67 69 73 75 75
60 57 57 64 54 85 68 55 58 60 57 54 52 40 32 26 21 18 18 17 17 17 17 21 26 31 35 39 43 47 50 53 55 58 61 63 65 68 69 71 73 76 77 80
54 52 57 66 71 66 62 54 50 55 59 50 42 29 21 15 12 18 18 16 16 18 18 20 27 33 39 43 45 48 53 56 60 64 67 68 69 72 74 77 79 80 82 83
50 51 53 54 68 75 58 49 43 42 66 38 31 22 19 18 26 24 13 11 12 14 19 25 31 37 42 46 47 52 59 62 66 68 69 70 71 74 77 79 81 81 82 85
54 55 58 54 57 55 45 37 33 51 51 19 16 15 14 20 19 6 2 8 13 19 25 30 35 41 46 49 51 59 64 69 70 70 72 73 74 77 80 82 82 84 86 87
54 55 56 51 55 58 34 31 41 31 8 8 10 6 2 3 4 3 5 11 18 25 30 35 41 47 51 53 58 67 72 72 73 74 77 80 81 82 83 85 87 87 88 92
57 49 48 48 43 31 28 28 24 14 8 8 9 7 10 8 6 8 13 19 25 31 37 42 48 55 58 61 63 71 73 75 77 79 82 84 85 85 85 88 89 90 87 89
44 39 41 39 36 28 21 11 5 3 11 10 10 7 8 9 10 14 19 26 33 38 44 49 55 60 65 65 67 69 75 77 80 84 86 86 87 88 85 84 85 88 91 92
42 37 33 34 25 16 11 4 9 13 12 10 7 9 10 12 16 21 26 33 39 44 48 51 57 62 67 70 73 75 77 79 83 85 86 87 87 88 89 86 86 88 83 83
37 34 38 36 20 18 16 11 10 13 8 7 10 11 16 18 22 27 33 39 44 49 52 57 61 65 71 74 77 78 77 77 81 88 88 88 90 89 89 90 91 81 85 86
Wind_Direction
249 252 242 240 256 267 261 253 252 257 260 256 254 249 252 255 259 264 267 272 276 281 286 294 297 298 301 307 306 304 300 296 293 289 291 302 315 322 328 336 338 339 338 337
254 239 257 253 258 265 260 253 256 260 259 257 254 254 255 257 259 263 266 271 275 278 282 288 295 299 301 304 308 309 307 305 300 299 297 303 308 324 330 334 338 338 336 335
250 265 248 254 253 254 263 253 254 258 256 264 256 258 255 257 260 262 265 270 274 275 278 283 289 297 301 304 308 312 313 313 311 308 306 309 315 319 324 328 330 335 338 337
259 265 239 246 244 247 259 264 256 252 252 256 257 257 257 255 257 258 261 264 269 272 277 281 285 292 299 304 309 314 319 320 320 320 320 321 319 318 321 324 329 332 337 336
258 257 246 245 235 247 266 260 260 260 260 260 258 261 260 258 256 257 257 260 264 269 273 278 283 290 297 304 310 313 320 324 325 327 326 322 323 323 324 325 328 331 333 335
263 268 257 262 262 243 231 265 272 267 265 260 259 260 261 258 261 259 252 254 257 262 268 275 282 291 296 302 308 314 319 323 327 329 331 332 329 326 325 326 326 327 330 333
263 265 269 269 261 233 240 229 265 264 260 261 263 260 257 266 268 264 242 242 249 256 264 270 276 283 292 299 304 310 316 321 325 329 332 332 334 333 332 330 330 330 330 331
256 260 252 259 257 246 228 228 255 264 263 265 268 259 261 269 270 273 253 231 241 253 263 269 276 282 289 297 303 308 313 318 322 327 330 333 334 334 333 333 332 332 331 331
266 263 271 263 260 241 248 232 243 274 281 268 263 265 267 268 269 262 249 235 240 250 258 266 276 282 288 295 301 306 310 314 319 323 327 330 332 333 331 331 331 330 330 328
271 272 271 259 262 261 256 242 249 257 266 266 268 264 262 262 258 255 241 237 241 249 256 265 273 280 287 295 302 307 311 314 317 320 322 325 327 329 329 329 328 328 327 327
256 264 276 262 255 254 258 251 258 265 262 267 262 263 271 266 253 244 242 238 238 244 253 263 273 282 290 298 302 307 310 313 316 319 321 322 323 325 327 327 326 326 326 325
253 263 264 266 268 264 262 258 237 257 261 265 267 260 286 282 257 241 239 236 239 246 254 264 273 281 288 294 298 303 310 313 315 318 319 321 322 323 323 324 324 324 323 323
260 262 260 265 266 267 259 258 261 259 270 263 265 264 280 282 272 255 235 234 237 244 255 265 274 282 290 296 301 305 310 313 315 317 318 318 319 319 319 320 320 320 320 320
266 264 260 259 269 265 259 257 255 257 263 265 265 270 274 270 260 253 247 240 238 241 251 266 276 284 291 297 301 305 308 313 314 316 316 316 317 317 317 318 319 319 320 319
267 265 262 264 269 268 268 263 256 252 258 266 271 269 269 257 259 244 232 230 232 242 254 269 280 290 298 302 306 308 310 312 314 313 313 313 315 316 317 317 318 318 318 318
273 270 267 264 265 265 267 267 263 262 262 268 273 275 281 263 255 245 234 229 236 244 255 267 285 298 304 308 309 311 311 312 313 313 313 314 314 314 314 316 316 316 316 317
272 271 269 265 266 265 264 262 262 263 265 266 266 273 263 256 252 244 235 235 238 242 246 265 286 297 304 307 309 309 311 313 312 312 312 313 313 313 313 314 313 313 313 314
271 270 271 269 267 260 269 274 268 265 269 271 274 272 263 256 256 241 238 230 239 253 266 279 292 301 307 310 311 312 313 313 313 313 313 313 313 312 312 312 312 312 312 312
270 269 270 265 263 273 271 271 268 263 269 271 268 265 257 235 236 255 260 266 267 278 286 295 303 308 311 312 314 313 313 313 312 312 312 312 313 312 311 310 310 311 311 311
269 268 268 270 265 264 273 274 279 278 269 265 262 243 215 212 249 252 251 279 293 303 306 307 312 314 314 314 315 314 313 313 312 313 313 313 312 311 310 310 310 310 309 309
262 263 261 266 271 276 282 275 279 266 274 256 236 213 208 258 281 214 233 308 316 315 315 317 317 316 316 317 317 315 314 313 314 314 314 313 312 311 310 309 309 309 308 308
260 258 259 266 271 271 283 273 269 286 273 196 171 200 226 8 85 86 349 328 323 321 321 321 319 318 319 320 319 316 315 316 317 316 314 313 312 312 311 309 309 308 308 307
259 265 263 265 273 293 291 285 292 270 164 161 137 107 86 72 36 352 333 329 327 324 323 325 323 322 322 322 321 318 318 319 317 316 314 313 313 312 311 310 309 308 308 306
268 270 268 265 273 277 295 296 254 159 122 116 98 69 30 45 9 351 339 330 326 328 327 327 326 324 323 324 323 321 320 319 318 316 315 314 313 312 312 310 309 308 306 305
269 265 263 268 267 263 266 182 127 114 101 87 36 19 24 13 351 342 336 333 332 333 332 332 330 328 326 326 324 323 322 320 318 317 316 315 314 313 312 311 310 308 308 306
269 265 260 257 226 253 197 150 126 107 87 56 52 19 359 358 354 347 342 338 337 335 336 334 331 329 327 327 325 325 325 324 321 318 318 317 315 315 313 312 311 311 309 308